sat.trackr.live / text

‹ back to catalog

COMSATBW-1

NORAD 35943 · 2009-054B

PAYLOAD ACTIVE UNKNOWN

§ Identity

Operator
Country
GER
Launch date
2009-10-01
Launch site
FRGUI
Launch vehicle
Mass (kg)
RCS (m²)
7.94

Purposes: comms

External: N2YO · Heavens-Above · Gunter

§ Orbital elements

Epoch: 2026-09-19T22:24:12.564000Z

Period
1,436.09 min
Inclination
0.0242°
Eccentricity
0.0003045
Mean motion
1.00272141 rev/d
Perigee alt
35,773.7 km
Apogee alt
35,799.3 km
Semi-major
42,164.6 km
B*
0.0000e+0
RAAN
156.4415°
Arg perigee
28.7097°
Mean anomaly
212.7381°
Rev number
6,225

§ Raw data

COMSATBW-11 35943U 09054B   26262.93347875  .00000020  00000+0  00000+0 0  99962 35943   0.0242 156.4415 0003045  28.7097 212.7381  1.00272141 62252

JSON: /api/v1/satellites/35943 · /tle

For live sub-satellite position, see the globe view (requires WebGL).

§ Visibility from observer

Set your observer location to see the next 7 days of passes ≥ 10°. The values pass through the URL so the page stays shareable.

No JS? Fill the form by hand. The geolocation button needs JavaScript.